Simultaneous Nadir Overpasses (SNOs) Predictions

Prediction of SNOs between AQUA and METOP-B Satellite Orbit:

Table of predicted SNOs for the next 14.0 days since TLE Epoch: 5/27/2023
Index Date (AQUA) Time (AQUA) Lat,Lon (AQUA) SZA (AQUA ) Date (METOP-B) Time (METOP-B) Lat,Lon (METOP-B) SZA (METOP-B ) Distance(km) Time Diff (sec)
1 05/27/2023 17:28:47 -74.45, 93.62 126.94 05/27/2023 17:28:10 -74.47, 93.51 126.92 3.74 37
2 05/27/2023 18:18:14 74.52, -98.91 53.13 05/27/2023 18:18:48 74.56, -98.93 53.16 3.63 34
3 05/30/2023 11:21:35 -74.52,-174.70 127.31 05/30/2023 11:21:10 -74.52,-174.61 127.30 2.64 25
4 05/30/2023 12:11:01 74.54, -7.11 52.71 05/30/2023 12:11:49 74.56, -7.18 52.73 3.24 48
5 06/02/2023 04:24:48 74.04, 110.64 51.82 06/02/2023 04:23:40 73.98, 108.44 51.82 67.61 68
6 06/02/2023 05:14:21 -74.52, -82.86 127.69 06/02/2023 05:14:11 -74.52, -82.88 127.68 0.97 10
7 06/02/2023 06:03:48 74.59, 84.60 52.39 06/02/2023 06:04:49 74.60, 84.67 52.39 2.44 61
8 06/04/2023 22:17:41 74.49,-158.59 51.95 06/04/2023 22:16:30 74.46,-158.61 51.94 2.60 71
9 06/04/2023 23:07:06 -74.55, 8.89 127.98 06/04/2023 23:07:10 -74.56, 8.97 127.98 2.47 4
10 06/04/2023 23:56:35 74.73, 176.08 52.21 06/04/2023 23:57:46 74.74, 176.77 52.19 20.17 71
11 06/07/2023 16:10:26 74.52, -66.82 51.70 06/07/2023 16:09:30 74.49, -66.79 51.68 2.57 56
12 06/07/2023 16:59:51 -74.58, 100.67 128.24 06/07/2023 17:00:11 -74.54, 100.67 128.28 3.83 20



Historial Predications of SNOs between AQUA and METOP-B
